Previsão horária em Abadzekhskaya

Hoje, 26 Janeiro, Terça-feira

Tempo Temperatura Precipitação Vento Pressão Humidade
00:00 +4°C° 0 mm 2 m/s 710 mmHg 60%
01:00 +3°C° 0 mm 3 m/s 710 mmHg 61%
02:00 +3°C° 0 mm 3 m/s 710 mmHg 61%
03:00 +3°C° 0 mm 3 m/s 711 mmHg 62%
04:00 +2°C° 0.2 mm 3 m/s 711 mmHg 68%
05:00 +2°C° 0.2 mm 3 m/s 712 mmHg 73%
06:00 +2°C° 0.2 mm 3 m/s 712 mmHg 79%
07:00 +2°C° 0 mm 3 m/s 712 mmHg 79%
08:00 +3°C° 0 mm 3 m/s 713 mmHg 80%
09:00 +4°C° 0 mm 2 m/s 713 mmHg 80%
10:00 +6°C° 0 mm 2 m/s 713 mmHg 77%
11:00 +8°C° 0 mm 1 m/s 713 mmHg 74%
12:00 +10°C° 0 mm 1 m/s 714 mmHg 72%
13:00 +10°C° 0 mm 1 m/s 713 mmHg 72%
14:00 +10°C° 0 mm 1 m/s 713 mmHg 72%
15:00 +10°C° 0 mm 1 m/s 712 mmHg 73%
16:00 +8°C° 0 mm 2 m/s 712 mmHg 74%
17:00 +7°C° 0 mm 2 m/s 712 mmHg 75%
18:00 +6°C° 0 mm 2 m/s 712 mmHg 77%
19:00 +5°C° 0 mm 2 m/s 712 mmHg 75%
20:00 +5°C° 0 mm 2 m/s 712 mmHg 74%
21:00 +5°C° 0 mm 2 m/s 711 mmHg 73%
22:00 +5°C° 0 mm 2 m/s 711 mmHg 71%
23:00 +5°C° 0 mm 2 m/s 711 mmHg 69%

Amanhã, 27 Janeiro, Quarta-feira

Tempo Temperatura Precipitação Vento Pressão Humidade
00:00 +5°C° 0 mm 2 m/s 711 mmHg 68%
01:00 +5°C° 0 mm 2 m/s 710 mmHg 67%
02:00 +5°C° 0 mm 2 m/s 710 mmHg 67%
03:00 +5°C° 0 mm 2 m/s 710 mmHg 67%
04:00 +6°C° 0 mm 2 m/s 709 mmHg 67%
05:00 +6°C° 0 mm 2 m/s 709 mmHg 67%
06:00 +6°C° 0 mm 2 m/s 709 mmHg 67%
07:00 +6°C° 0 mm 2 m/s 708 mmHg 67%
08:00 +6°C° 0 mm 2 m/s 708 mmHg 67%
09:00 +6°C° 0 mm 2 m/s 708 mmHg 67%
10:00 +9°C° 0 mm 1 m/s 708 mmHg 66%
11:00 +10°C° 0 mm 1 m/s 707 mmHg 65%
12:00 +12°C° 0 mm 1 m/s 707 mmHg 65%
13:00 +12°C° 0 mm 1 m/s 706 mmHg 66%
14:00 +12°C° 0 mm 1 m/s 706 mmHg 68%
15:00 +12°C° 0 mm 1 m/s 705 mmHg 70%
16:00 +11°C° 0 mm 1 m/s 705 mmHg 71%
17:00 +10°C° 0 mm 1 m/s 705 mmHg 72%
18:00 +8°C° 0 mm 1 m/s 705 mmHg 73%
19:00 +8°C° 0 mm 1 m/s 705 mmHg 71%
20:00 +7°C° 0 mm 2 m/s 705 mmHg 69%
21:00 +6°C° 0 mm 2 m/s 704 mmHg 67%
22:00 +6°C° 0 mm 2 m/s 704 mmHg 65%
23:00 +6°C° 0 mm 2 m/s 704 mmHg 63%

Depois de amanhã, 28 Janeiro, Quinta-feira

Tempo Temperatura Precipitação Vento Pressão Humidade
00:00 +5°C° 0 mm 2 m/s 704 mmHg 61%
01:00 +5°C° 0 mm 2 m/s 703 mmHg 60%
02:00 +5°C° 0 mm 2 m/s 703 mmHg 59%
03:00 +5°C° 0 mm 2 m/s 703 mmHg 58%
04:00 +5°C° 0 mm 2 m/s 703 mmHg 59%
05:00 +5°C° 0 mm 2 m/s 703 mmHg 60%
06:00 +5°C° 0 mm 2 m/s 703 mmHg 60%
07:00 +7°C° 0 mm 1 m/s 703 mmHg 61%
08:00 +7°C° 0 mm 1 m/s 703 mmHg 62%
09:00 +7°C° 0 mm 1 m/s 703 mmHg 63%
10:00 +8°C° 0 mm 1 m/s 704 mmHg 66%
11:00 +8°C° 0 mm 1 m/s 704 mmHg 68%
12:00 +8°C° 0 mm 2 m/s 705 mmHg 70%
13:00 +8°C° 0.1 mm 2 m/s 705 mmHg 74%
14:00 +8°C° 0.1 mm 2 m/s 705 mmHg 78%
15:00 +7°C° 0.1 mm 2 m/s 705 mmHg 81%
16:00 +7°C° 0.4 mm 2 m/s 705 mmHg 84%
17:00 +6°C° 0.4 mm 2 m/s 705 mmHg 87%
18:00 +5°C° 0.4 mm 2 m/s 706 mmHg 90%
19:00 +5°C° 0.6 mm 2 m/s 706 mmHg 90%
20:00 +4°C° 0.6 mm 2 m/s 706 mmHg 90%
21:00 +4°C° 0.6 mm 2 m/s 706 mmHg 90%
22:00 +3°C° 0.9 mm 2 m/s 707 mmHg 90%
23:00 +4°C° 0.9 mm 1 m/s 707 mmHg 91%

29 Janeiro, Sexta-feira

Tempo Temperatura Precipitação Vento Pressão Humidade
00:00 +3°C° 0.9 mm 1 m/s 707 mmHg 92%
01:00 +2°C° 0.1 mm 0 m/s 707 mmHg 92%
02:00 +2°C° 0.1 mm 0 m/s 707 mmHg 93%
03:00 +2°C° 0.1 mm 0 m/s 706 mmHg 93%
04:00 +2°C° 0.7 mm 0 m/s 706 mmHg 94%
05:00 +2°C° 0.7 mm 1 m/s 707 mmHg 95%
06:00 +2°C° 0.7 mm 1 m/s 707 mmHg 95%
07:00 +2°C° 0.4 mm 1 m/s 707 mmHg 95%
08:00 +1°C° 0.4 mm 0 m/s 707 mmHg 95%
09:00 +1°C° 0.4 mm 0 m/s 707 mmHg 95%
10:00 +2°C° 0.5 mm 0 m/s 707 mmHg 93%
11:00 +3°C° 0.5 mm 1 m/s 708 mmHg 91%
12:00 +3°C° 0.5 mm 1 m/s 708 mmHg 89%
13:00 +4°C° 0.1 mm 1 m/s 708 mmHg 84%
14:00 +3°C° 0.1 mm 2 m/s 708 mmHg 80%
15:00 +4°C° 0.1 mm 2 m/s 708 mmHg 75%
16:00 +3°C° 0.1 mm 2 m/s 708 mmHg 79%
17:00 +2°C° 0.1 mm 2 m/s 708 mmHg 82%
18:00 +1°C° 0.1 mm 2 m/s 708 mmHg 86%
19:00 -1°C° 0 mm 2 m/s 708 mmHg 86%
20:00 +1°C° 0 mm 1 m/s 708 mmHg 86%
21:00 +1°C° 0 mm 1 m/s 708 mmHg 86%
22:00 +1°C° 0 mm 1 m/s 708 mmHg 84%
23:00 0°C° 0 mm 1 m/s 708 mmHg 82%

30 Janeiro, Sábado

Tempo Temperatura Precipitação Vento Pressão Humidade
00:00 0°C° 0 mm 1 m/s 708 mmHg 80%
01:00 -2°C° 0 mm 2 m/s 708 mmHg 78%
02:00 -1°C° 0 mm 2 m/s 708 mmHg 76%
03:00 -1°C° 0 mm 2 m/s 708 mmHg 74%
04:00 -1°C° 0 mm 2 m/s 707 mmHg 73%
05:00 -1°C° 0 mm 2 m/s 707 mmHg 71%
06:00 -1°C° 0 mm 2 m/s 707 mmHg 70%
07:00 +1°C° 0 mm 2 m/s 707 mmHg 69%
08:00 +1°C° 0 mm 2 m/s 707 mmHg 68%
09:00 +2°C° 0 mm 2 m/s 707 mmHg 66%
10:00 +3°C° 0 mm 2 m/s 707 mmHg 61%
11:00 +4°C° 0 mm 2 m/s 707 mmHg 56%
12:00 +6°C° 0 mm 2 m/s 706 mmHg 51%
13:00 +7°C° 0 mm 1 m/s 706 mmHg 54%
14:00 +7°C° 0 mm 1 m/s 705 mmHg 57%
15:00 +7°C° 0 mm 1 m/s 705 mmHg 60%
16:00 +6°C° 0 mm 1 m/s 705 mmHg 63%
17:00 +5°C° 0 mm 1 m/s 705 mmHg 66%
18:00 +4°C° 0 mm 1 m/s 704 mmHg 69%
19:00 +3°C° 0 mm 2 m/s 704 mmHg 70%
20:00 +2°C° 0 mm 2 m/s 704 mmHg 71%
21:00 +2°C° 0 mm 2 m/s 704 mmHg 71%
22:00 +2°C° 0 mm 2 m/s 703 mmHg 71%
23:00 +2°C° 0 mm 2 m/s 703 mmHg 70%

31 Janeiro, Domingo

Tempo Temperatura Precipitação Vento Pressão Humidade
00:00 +2°C° 0 mm 2 m/s 703 mmHg 69%
01:00 +2°C° 0 mm 2 m/s 702 mmHg 69%
02:00 +2°C° 0 mm 2 m/s 702 mmHg 70%
03:00 +2°C° 0 mm 2 m/s 702 mmHg 70%
04:00 +3°C° 0 mm 1 m/s 701 mmHg 72%
05:00 +3°C° 0 mm 1 m/s 701 mmHg 74%
06:00 +3°C° 0 mm 1 m/s 701 mmHg 76%
07:00 +3°C° 0.6 mm 1 m/s 702 mmHg 79%
08:00 +3°C° 0.6 mm 1 m/s 703 mmHg 81%
09:00 +2°C° 0.6 mm 2 m/s 703 mmHg 84%
10:00 +1°C° 1.1 mm 3 m/s 704 mmHg 88%
11:00 0°C° 1.1 mm 4 m/s 705 mmHg 91%
12:00 0°C° 1.1 mm 5 m/s 706 mmHg 94%
13:00 +1°C° 0.1 mm 4 m/s 707 mmHg 86%
14:00 +3°C° 0.1 mm 4 m/s 708 mmHg 78%
15:00 +4°C° 0.1 mm 4 m/s 709 mmHg 69%
16:00 +3°C° 0 mm 4 m/s 709 mmHg 73%
17:00 +1°C° 0 mm 3 m/s 710 mmHg 77%
18:00 0°C° 0 mm 3 m/s 710 mmHg 81%
19:00 +1°C° 0 mm 2 m/s 711 mmHg 82%
20:00 +1°C° 0 mm 2 m/s 711 mmHg 83%
21:00 +1°C° 0 mm 1 m/s 711 mmHg 85%
22:00 +1°C° 0 mm 1 m/s 711 mmHg 84%
23:00 +1°C° 0 mm 1 m/s 711 mmHg 83%
Mostrar mais